sat.trackr.live / text

‹ back to catalog

STARLINK-11571 [DTC]

NORAD 62986 · 2025-031F

PAYLOAD ACTIVE UNKNOWN

§ Identity

Operator
Country
US
Launch date
2025-02-11
Launch site
AFETR
Launch vehicle
Mass (kg)
RCS (m²)

Purposes: comms

External: N2YO · Heavens-Above · Gunter

§ Orbital elements

Epoch: 2026-05-25T00:44:59.527392Z

Period
91.67 min
Inclination
42.9992°
Eccentricity
0.0001139
Mean motion
15.70912554 rev/d
Perigee alt
355.5 km
Apogee alt
357.1 km
Semi-major
6,734.4 km
B*
1.8469e-3
RAAN
260.8768°
Arg perigee
299.2805°
Mean anomaly
60.7948°
Rev number
7,475

§ Raw data

STARLINK-11571 [DTC]1 62986U 25031F   26145.03124453  .00244381  00000+0  18469-2 0  99932 62986  42.9992 260.8768 0001139 299.2805  60.7948 15.70912554 74750

JSON: /api/v1/satellites/62986 · /tle

For live sub-satellite position, see the globe view (requires WebGL).

§ Visibility from observer

Set your observer location to see the next 7 days of passes ≥ 10°. The values pass through the URL so the page stays shareable.

No JS? Fill the form by hand. The geolocation button needs JavaScript.